Powrót do katalogu

STARLINK-31340

AktywnyŁącznośćVLEO
NORAD 59170·PAYLOAD·🇺🇸 United States

Wystrzelony Mar 4, 2024 z Cape Canaveral Space Force Station

Loading…

Następne Przeloty (najbliższe 24 godziny)

TLE

ŚwieżeSource: CelesTrak SupGP

Epoka: Sep 15, 2026, 01:56 UTC

1 59170C 24044U   26258.08104167  .00011336  00000+0  41057-3 0  2587
2 59170  43.0003  77.8908 0001466 274.7860 241.0784 15.27575152    11

Śledź STARLINK-31340 w czasie rzeczywistym z AllMySat

Download on the App Store